Simultaneous Nadir Overpasses (SNOs) Predictions

Prediction of SNOs between AQUA and METOP-C Satellite Orbit:

Table of predicted SNOs for the next 14.0 days since TLE Epoch: 3/20/2020
Index Date (AQUA) Time (AQUA) Lat,Lon (AQUA) SZA (AQUA ) Date (METOP-C) Time (METOP-C) Lat,Lon (METOP-C) SZA (METOP-C ) Distance(km) Time Diff (sec)
1 03/22/2020 21:17:01 73.17,-143.65 72.10 03/22/2020 21:15:54 73.11,-145.99 72.14 76.00 67
2 03/22/2020 22:06:38 -73.77, 22.74 107.28 03/22/2020 22:06:22 -73.77, 22.84 107.28 3.05 16
3 03/22/2020 22:56:06 73.80,-169.68 72.74 03/22/2020 22:57:02 73.79,-169.78 72.73 3.17 56
4 03/25/2020 16:51:22 73.45, -77.77 71.27 03/25/2020 16:50:12 73.39, -78.97 71.27 38.67 70
5 03/25/2020 17:40:53 -73.73, 89.27 108.44 03/25/2020 17:40:46 -73.75, 89.19 108.42 3.33 7
6 03/25/2020 18:30:22 73.81,-103.27 71.63 03/25/2020 18:31:25 73.82,-103.32 71.64 1.82 63
7 03/28/2020 12:25:43 73.72, -11.93 70.46 03/28/2020 12:24:29 73.71, -11.82 70.46 3.56 74
8 03/28/2020 13:15:09 -73.74, 155.67 109.53 03/28/2020 13:15:09 -73.77, 155.65 109.50 3.20 0
9 03/28/2020 14:04:38 73.82, -36.87 70.54 03/28/2020 14:05:48 73.84, -36.85 70.55 2.17 70
10 03/31/2020 07:59:57 73.69, 54.58 69.33 03/31/2020 07:58:52 73.69, 54.52 69.34 1.89 65
11 03/31/2020 08:49:24 -73.77,-137.94 110.61 03/31/2020 08:49:32 -73.75,-138.01 110.63 2.97 8
12 03/31/2020 09:38:56 74.00, 29.18 69.63 03/31/2020 09:40:07 74.01, 29.97 69.61 24.39 71
13 04/03/2020 03:34:13 73.72, 120.96 68.27 04/03/2020 03:33:15 73.71, 120.98 68.27 1.51 58
14 04/03/2020 04:23:40 -73.79, -71.56 111.67 04/03/2020 04:23:55 -73.77, -71.55 111.70 2.75 15




NCC Satellite Simultaneous Nadir Overpasses (SNOs) Prediction Service
